Clearwater Lake Weather Center

Moon Phase Calendar



Clearwater Lake Water Level
Online Cameras

 


      

Current Conditions in Piedmont
11/25/2020 5:06:19 AM

46°F
Feels Like 43
Rain
Humidity
99%
Pressure
29.5"
Wind
4 mph (ENE)
Dew Point
46°F
UV Index
2/10 (Low)
Visibility
2 mi

Hourly Forecast

Date & Time Wed, Nov 25
5:00 AM
Wed, Nov 25
6:00 AM
Wed, Nov 25
7:00 AM
Wed, Nov 25
8:00 AM
Wed, Nov 25
9:00 AM
Wed, Nov 25
10:00 AM
Wed, Nov 25
11:00 AM
Wed, Nov 25
12:00 PM
Wed, Nov 25
1:00 PM
Wed, Nov 25
2:00 PM
Wed, Nov 25
3:00 PM
Wed, Nov 25
4:00 PM
Wed, Nov 25
5:00 PM
Wed, Nov 25
6:00 PM
Wed, Nov 25
7:00 PM
Wed, Nov 25
8:00 PM
Wed, Nov 25
9:00 PM
Wed, Nov 25
10:00 PM
Wed, Nov 25
11:00 PM
Thu, Nov 26
12:00 AM
Thu, Nov 26
1:00 AM
Thu, Nov 26
2:00 AM
Thu, Nov 26
3:00 AM
Thu, Nov 26
4:00 AM
Thu, Nov 26
5:00 AM
Thu, Nov 26
6:00 AM
Thu, Nov 26
7:00 AM
Thu, Nov 26
8:00 AM
Thu, Nov 26
9:00 AM
Thu, Nov 26
10:00 AM
Thu, Nov 26
11:00 AM
Thu, Nov 26
12:00 PM
Thu, Nov 26
1:00 PM
Thu, Nov 26
2:00 PM
Thu, Nov 26
3:00 PM
Thu, Nov 26
4:00 PM
Thu, Nov 26
5:00 PM
Thu, Nov 26
6:00 PM
Thu, Nov 26
7:00 PM
Thu, Nov 26
8:00 PM
Thu, Nov 26
9:00 PM
Thu, Nov 26
10:00 PM
Thu, Nov 26
11:00 PM
Fri, Nov 27
12:00 AM
Fri, Nov 27
1:00 AM
Fri, Nov 27
2:00 AM
Fri, Nov 27
3:00 AM
Fri, Nov 27
4:00 AM
Condition
Rain

Clouds

Clouds

Rain

Rain

Rain

Rain

Clouds

Clouds

Clouds

Clouds

Clouds

Clouds

Clouds

Clouds

Clouds

Clouds

Clouds

Clouds

Clouds

Clouds

Clouds

Clouds

Clouds

Clouds

Clouds

Clear

Clear

Clear

Clear

Clear

Clear

Clear

Clear

Clear

Clear

Clouds

Clouds

Clouds

Clouds

Clouds

Clouds

Clouds

Clouds

Clear

Clear

Clear

Clear
Temperature 46°F50°F51°F53°F58°F60°F57°F51°F51°F52°F51°F52°F50°F50°F50°F50°F48°F46°F47°F47°F48°F48°F47°F46°F43°F42°F42°F44°F48°F52°F55°F57°F58°F58°F57°F55°F50°F48°F47°F46°F45°F45°F44°F44°F43°F43°F43°F42°F
Feels Like 43°F48°F49°F53°F56°F54°F49°F42°F43°F44°F44°F45°F45°F45°F45°F45°F43°F41°F42°F43°F43°F44°F43°F42°F40°F39°F38°F41°F45°F49°F52°F53°F54°F54°F54°F52°F47°F45°F43°F43°F42°F42°F41°F40°F40°F40°F40°F39°F
Cloudiness 97%97%66%41%34%29%25%38%100%99%99%97%95%95%90%94%71%57%58%64%100%100%96%92%81%68%0%0%0%0%1%1%0%0%0%0%19%32%100%100%100%100%81%68%0%0%0%0%
Visibility 2 mi6 mi6 mi6 mi6 mi6 mi6 mi6 mi6 mi6 mi6 mi6 mi6 mi6 mi6 mi6 mi6 mi6 mi6 mi6 mi6 mi6 mi6 mi6 mi6 mi6 mi6 mi6 mi6 mi6 mi6 mi6 mi6 mi6 mi6 mi6 mi6 mi6 mi6 mi6 mi6 mi6 mi6 mi6 mi6 mi6 mi6 mi6 mi
Precipitation 100%80%52%52%64%82%80%80%0%0%0%0%0%0%0%0%0%0%0%0%0%0%0%0%0%0%0%0%0%0%0%0%0%0%0%0%0%0%0%0%0%0%0%0%0%0%0%0%
Humidity 99%98%98%97%90%76%79%79%76%77%79%80%84%85%86%86%90%93%91%88%85%85%86%88%93%95%95%90%80%73%67%64%61%61%63%72%83%87%90%91%92%91%92%93%93%93%93%93%
Dew Point 46°F49°F50°F52°F56°F53°F51°F45°F44°F45°F45°F46°F46°F46°F46°F46°F45°F44°F44°F44°F44°F44°F43°F43°F42°F41°F41°F42°F43°F44°F44°F45°F45°F45°F45°F46°F45°F44°F44°F44°F43°F43°F42°F42°F42°F41°F41°F41°F
Pressure 29.5"29.62"29.68"29.74"29.77"29.77"29.77"29.77"29.8"29.8"29.83"29.85"29.91"29.91"29.94"29.97"29.97"29.97"30"30.03"30.03"30.03"30.06"30.06"30.06"30.09"30.09"30.09"30.12"30.12"30.12"30.09"30.06"30.06"30.03"30.03"30.06"30.06"30.06"30.06"30.09"30.09"30.09"30.09"30.09"30.09"30.09"30.09"
Wind Speed 4.3 mph2.4 mph3.8 mph2.1 mph6.8 mph13.2 mph14.8 mph13.5 mph12.2 mph11.8 mph10.2 mph9.2 mph7.6 mph7.8 mph7.2 mph7.6 mph7.3 mph6.5 mph5.9 mph5.4 mph5.4 mph4 mph3.8 mph3.3 mph2.2 mph2 mph1.8 mph2.3 mph2.6 mph3 mph3.2 mph4.2 mph4.6 mph4.4 mph4.4 mph3.6 mph3.2 mph2.9 mph3.2 mph3.1 mph2.8 mph2.6 mph2.6 mph2.6 mph2.6 mph2.4 mph2.1 mph1.9 mph
Wind
Direction
283°
WNW
98°
E
99°
E
144°
SE
209°
SSW
226°
SW
253°
WSW
251°
WSW
249°
WSW
253°
WSW
256°
WSW
257°
WSW
258°
WSW
260°
W
266°
W
269°
W
271°
W
273°
W
285°
WNW
277°
W
282°
WNW
279°
W
286°
WNW
305°
NW
312°
NW
289°
WNW
264°
W
254°
WSW
243°
WSW
219°
SW
200°
SSW
199°
SSW
206°
SSW
200°
SSW
193°
SSW
189°
S
175°
S
157°
SSE
164°
SSE
167°
SSE
167°
SSE
176°
S
173°
S
180°
S
179°
S
205°
SSW
217°
SW
208°
SSW

Daily Forecast

Date High Low Precip. Humidity
Today
Nov 25

Rain
56 °F
46 °F
100%
80%
Thursday
Nov 26

Clear
57 °F
42 °F
0%
64%
Friday
Nov 27

Clouds
58 °F
42 °F
0%
59%
Saturday
Nov 28

Clear
51 °F
34 °F
0%
46%
Sunday
Nov 29

Rain
44 °F
37 °F
100%
95%
Monday
Nov 30

Rain
42 °F
32 °F
82%
88%
Tuesday
Dec 1

Clouds
35 °F
28 °F
26%
85%
Wednesday
Dec 2

Clear
50 °F
28 °F
0%
45%
Thursday
Dec 3

Clouds
36 °F
27 °F
0%
73%
Friday
Dec 4

Clear
42 °F
26 °F
0%
62%
Saturday
Dec 5

Clear
46 °F
26 °F
0%
50%
Sunday
Dec 6

Clouds
47 °F
28 °F
0%
55%
Monday
Dec 7

Rain
41 °F
27 °F
89%
76%
Tuesday
Dec 8

Clear
40 °F
24 °F
0%
63%
Wednesday
Dec 9

Clouds
40 °F
26 °F
0%
64%
Thursday
Dec 10

Clear
46 °F
25 °F
0%
52%


Temperature 8-14 Day Outlook



Precipitation 8-14 Day Outlook




Quick Links
Clearwater Lake News
Clearwater Lake Photos
Clearwater Lake Videos




About Us
Contact Us
Site Map
Search Site
Advertise With Us
   
Clearwater.LakesOnline.com
THE CLEARWATER LAKE WEBSITE

Copyright 2020, Lakes Online
Privacy    |    Legal